QPF
0.00 0.00 0.00 0.00 0.00 0.00 0.00 0.00 0.00 0.01 0.00 0.00 0.00 0.04 0.09 0.08 0.05 0.07 0.02 0.03 0.00 0.00 0.00 0.00 0.00 0.00 0.00 0.00 0.00 0.00 0.00 0.00 0.00 0.00 0.00 0.00 0.00 0.00
0.00 0.00 0.00 0.00 0.00 0.00 0.00 0.00 0.00 0.00 0.00 0.00 0.00 0.02 0.07 0.07 0.08 0.07 0.02 0.02 0.02 0.00 0.00 0.00 0.00 0.00 0.00 0.00 0.00 0.00 0.00 0.00 0.00 0.00 0.00 0.00 0.00 0.00
0.00 0.00 0.00 0.00 0.00 0.00 0.00 0.00 0.00 0.00 0.00 0.00 0.00 0.01 0.06 0.09 0.06 0.06 0.09 0.07 0.03 0.00 0.00 0.00 0.00 0.00 0.00 0.00 0.00 0.00 0.00 0.00 0.00 0.00 0.00 0.00 0.00 0.00
0.00 0.00 0.01 0.01 0.00 0.00 0.00 0.00 0.00 0.00 0.00 0.00 0.00 0.00 0.03 0.08 0.12 0.10 0.08 0.08 0.03 0.01 0.00 0.00 0.00 0.00 0.00 0.00 0.00 0.00 0.00 0.00 0.00 0.00 0.00 0.00 0.00 0.00
0.00 0.00 0.01 0.01 0.00 0.00 0.00 0.00 0.00 0.00 0.00 0.00 0.00 0.00 0.01 0.03 0.08 0.10 0.07 0.05 0.06 0.04 0.03 0.01 0.00 0.00 0.00 0.00 0.00 0.00 0.00 0.00 0.00 0.00 0.00 0.00 0.00 0.00
0.00 0.01 0.01 0.01 0.01 0.00 0.00 0.00 0.00 0.00 0.00 0.00 0.00 0.00 0.00 0.00 0.03 0.06 0.06 0.03 0.02 0.05 0.06 0.02 0.01 0.00 0.00 0.00 0.00 0.00 0.00 0.00 0.00 0.00 0.00 0.00 0.00 0.00
0.00 0.00 0.00 0.01 0.01 0.00 0.00 0.00 0.00 0.00 0.00 0.00 0.00 0.00 0.00 0.00 0.00 0.02 0.03 0.02 0.00 0.01 0.02 0.03 0.01 0.01 0.00 0.00 0.00 0.00 0.00 0.00 0.00 0.00 0.00 0.00 0.00 0.00
0.00 0.00 0.00 0.00 0.00 0.00 0.00 0.00 0.00 0.00 0.00 0.00 0.00 0.00 0.00 0.00 0.00 0.01 0.02 0.03 0.02 0.00 0.00 0.00 0.01 0.01 0.00 0.00 0.00 0.00 0.00 0.00 0.00 0.00 0.00 0.00 0.00 0.00
0.00 0.00 0.00 0.00 0.00 0.00 0.00 0.00 0.00 0.00 0.00 0.00 0.00 0.00 0.00 0.00 0.00 0.00 0.01 0.01 0.02 0.00 0.00 0.00 0.00 0.00 0.00 0.00 0.00 0.00 0.00 0.00 0.00 0.00 0.00 0.00 0.00 0.00
0.00 0.00 0.00 0.00 0.00 0.00 0.00 0.00 0.00 0.00 0.00 0.00 0.00 0.00 0.00 0.00 0.00 0.00 0.00 0.01 0.01 0.01 0.01 0.00 0.00 0.00 0.00 0.00 0.00 0.00 0.00 0.00 0.00 0.00 0.00 0.00 0.00 0.00
0.00 0.00 0.00 0.00 0.00 0.00 0.00 0.00 0.00 0.00 0.00 0.00 0.00 0.00 0.00 0.00 0.00 0.00 0.00 0.01 0.00 0.01 0.01 0.01 0.00 0.00 0.00 0.00 0.00 0.00 0.00 0.00 0.00 0.00 0.00 0.00 0.00 0.00
0.00 0.00 0.00 0.00 0.00 0.00 0.00 0.00 0.00 0.00 0.00 0.00 0.00 0.00 0.00 0.00 0.00 0.00 0.00 0.01 0.00 0.00 0.01 0.01 0.00 0.00 0.00 0.00 0.00 0.00 0.00 0.00 0.00 0.00 0.00 0.00 0.00 0.00
0.00 0.00 0.00 0.00 0.00 0.00 0.00 0.00 0.00 0.00 0.00 0.00 0.00 0.00 0.00 0.00 0.00 0.00 0.00 0.00 0.00 0.00 0.00 0.01 0.00 0.00 0.02 0.00 0.00 0.00 0.00 0.00 0.00 0.00 0.00 0.00 0.00 0.00
0.00 0.00 0.00 0.00 0.00 0.00 0.00 0.00 0.00 0.00 0.00 0.00 0.00 0.00 0.00 0.00 0.00 0.00 0.00 0.00 0.00 0.00 0.00 0.00 0.00 0.00 0.01 0.01 0.00 0.00 0.00 0.00 0.00 0.00 0.00 0.00 0.00 0.00
0.00 0.00 0.00 0.00 0.00 0.00 0.00 0.00 0.00 0.00 0.00 0.00 0.00 0.00 0.00 0.00 0.00 0.00 0.00 0.00 0.00 0.00 0.00 0.00 0.00 0.00 0.00 0.01 0.01 0.01 0.00 0.00 0.00 0.00 0.00 0.00 0.00 0.00
0.00 0.00 0.00 0.00 0.00 0.00 0.00 0.00 0.00 0.00 0.00 0.00 0.00 0.00 0.00 0.00 0.00 0.00 0.00 0.00 0.00 0.00 0.00 0.00 0.00 0.00 0.00 0.00 0.00 0.00 0.01 0.01 0.00 0.00 0.00 0.00 0.00 0.00
0.00 0.00 0.00 0.00 0.00 0.00 0.00 0.00 0.00 0.00 0.00 0.00 0.00 0.00 0.00 0.00 0.00 0.00 0.00 0.00 0.00 0.00 0.00 0.00 0.00 0.00 0.00 0.00 0.00 0.00 0.00 0.00 0.00 0.00 0.00 0.00 0.00 0.00
0.00 0.00 0.00 0.00 0.00 0.00 0.00 0.00 0.00 0.00 0.00 0.00 0.00 0.00 0.00 0.00 0.00 0.00 0.00 0.00 0.00 0.00 0.00 0.00 0.00 0.00 0.00 0.00 0.00 0.00 0.00 0.00 0.00 0.00 0.00 0.00 0.00 0.00
0.00 0.00 0.00 0.00 0.00 0.00 0.00 0.00 0.00 0.00 0.00 0.00 0.00 0.00 0.00 0.00 0.00 0.00 0.00 0.00 0.00 0.00 0.00 0.00 0.00 0.00 0.00 0.00 0.00 0.00 0.00 0.00 0.00 0.00 0.00 0.00 0.00 0.00
0.00 0.00 0.00 0.00 0.00 0.00 0.00 0.00 0.00 0.00 0.00 0.00 0.00 0.00 0.00 0.00 0.00 0.00 0.00 0.00 0.00 0.00 0.00 0.00 0.00 0.00 0.00 0.00 0.00 0.00 0.00 0.00 0.00 0.00 0.00 0.00 0.00 0.00
0.00 0.00 0.00 0.00 0.00 0.00 0.00 0.00 0.00 0.00 0.00 0.00 0.00 0.00 0.00 0.00 0.00 0.00 0.00 0.00 0.00 0.00 0.00 0.00 0.00 0.00 0.00 0.00 0.00 0.00 0.00 0.00 0.00 0.00 0.00 0.00 0.00 0.00
0.00 0.00 0.00 0.00 0.00 0.00 0.00 0.00 0.00 0.00 0.00 0.00 0.00 0.00 0.00 0.00 0.00 0.00 0.00 0.00 0.00 0.00 0.00 0.00 0.00 0.00 0.00 0.00 0.00 0.00 0.00 0.00 0.00 0.00 0.00 0.00 0.00 0.00
0.00 0.00 0.00 0.00 0.00 0.00 0.00 0.00 0.00 0.00 0.00 0.00 0.00 0.00 0.00 0.00 0.00 0.00 0.00 0.00 0.00 0.00 0.00 0.00 0.00 0.00 0.00 0.00 0.00 0.00 0.00 0.00 0.00 0.00 0.00 0.00 0.00 0.00
MSLP
1018.62 1017.85 1017.33 1016.75 1015.90 1015.01 1014.64 1014.36 1013.63 1012.22 1010.13 1009.87 1010.01 1010.14 1010.24 1011.00 1011.60 1012.58 1012.99 1014.04 1014.44 1015.37 1016.06 1016.63 1017.34 1018.17 1018.94 1019.70 1020.28 1020.90 1021.48 1022.14 1022.88 1023.57 1024.19 1024.78 1025.32 1025.77
1018.71 1017.90 1017.39 1016.75 1016.17 1015.58 1014.76 1014.26 1013.90 1012.94 1011.80 1009.71 1009.38 1009.20 1009.42 1010.02 1010.90 1011.71 1012.29 1012.77 1013.83 1014.48 1015.31 1015.90 1016.52 1017.26 1018.13 1018.96 1019.64 1020.24 1020.76 1021.33 1021.95 1022.67 1023.35 1023.93 1024.55 1025.03
1018.88 1018.42 1017.89 1017.27 1016.23 1015.43 1014.87 1014.52 1013.74 1013.39 1012.38 1010.28 1009.50 1009.22 1009.27 1010.24 1010.50 1011.03 1011.44 1012.17 1013.01 1013.87 1014.45 1015.07 1015.76 1016.41 1017.25 1018.18 1018.99 1019.66 1020.21 1020.69 1021.16 1021.79 1022.49 1023.14 1023.73 1024.27
1019.14 1018.47 1017.76 1017.01 1016.32 1015.75 1015.21 1014.51 1013.81 1013.51 1013.31 1010.71 1009.44 1009.48 1009.56 1010.38 1010.30 1010.44 1010.66 1011.32 1011.79 1012.79 1013.51 1014.12 1014.91 1015.64 1016.43 1017.35 1018.24 1019.02 1019.66 1020.14 1020.61 1021.07 1021.64 1022.25 1022.86 1023.38
1019.17 1018.47 1017.96 1017.32 1016.60 1016.08 1015.30 1014.56 1013.96 1013.58 1012.80 1011.90 1009.76 1009.55 1009.64 1009.94 1010.07 1010.08 1009.97 1010.56 1011.02 1011.50 1012.44 1013.21 1014.00 1014.84 1015.56 1016.36 1017.23 1018.11 1018.82 1019.41 1019.93 1020.35 1020.84 1021.38 1021.96 1022.49
1019.44 1018.80 1018.23 1017.66 1017.02 1016.12 1015.46 1014.92 1014.32 1013.55 1012.72 1011.39 1009.19 1009.24 1009.40 1009.64 1009.98 1010.52 1009.68 1009.70 1010.27 1010.73 1011.80 1012.62 1013.35 1014.10 1014.74 1015.56 1016.34 1017.01 1017.77 1018.40 1018.99 1019.48 1019.99 1020.61 1021.17 1021.66
1019.55 1019.04 1018.52 1017.97 1017.31 1016.63 1015.90 1015.19 1014.50 1013.76 1012.60 1011.20 1009.98 1009.10 1009.28 1009.36 1009.63 1010.54 1009.68 1009.34 1009.65 1010.22 1011.29 1012.11 1012.91 1013.62 1014.25 1015.14 1015.70 1016.38 1016.65 1017.17 1017.80 1018.52 1019.22 1019.74 1020.30 1020.80
1019.90 1019.34 1018.79 1018.10 1017.24 1016.58 1015.77 1015.03 1014.55 1013.64 1012.46 1012.23 1010.96 1009.67 1009.06 1009.16 1009.24 1009.18 1009.45 1009.45 1009.40 1009.41 1010.39 1011.27 1011.85 1012.44 1012.82 1013.59 1014.09 1014.97 1015.61 1016.06 1016.66 1017.37 1018.02 1018.72 1019.38 1019.98
1020.24 1019.61 1019.03 1018.46 1017.69 1016.68 1015.71 1014.83 1014.17 1013.79 1013.40 1012.74 1011.89 1011.01 1010.51 1009.58 1009.24 1009.13 1009.08 1009.74 1009.20 1009.25 1009.56 1010.39 1011.22 1011.41 1011.59 1012.09 1012.82 1013.63 1014.32 1014.89 1015.60 1016.31 1017.05 1017.73 1018.30 1018.89
1020.85 1020.32 1019.72 1018.79 1018.04 1017.15 1016.15 1015.26 1014.44 1013.85 1013.49 1013.03 1012.53 1011.59 1011.33 1010.69 1010.30 1008.89 1008.67 1009.20 1008.93 1008.65 1009.36 1009.57 1010.33 1010.57 1010.71 1011.02 1011.67 1012.39 1013.04 1013.75 1014.31 1014.89 1015.54 1016.27 1016.97 1017.60
1021.43 1020.88 1020.32 1019.56 1018.71 1017.69 1016.88 1016.07 1015.21 1014.49 1013.65 1012.99 1012.31 1011.27 1011.37 1010.83 1010.30 1009.63 1008.88 1009.22 1009.54 1009.24 1009.31 1009.41 1009.94 1010.56 1010.46 1010.48 1010.65 1011.30 1011.84 1012.44 1013.17 1013.81 1014.45 1015.05 1015.71 1016.53
1021.88 1021.38 1020.89 1020.16 1019.35 1018.53 1017.75 1016.85 1015.95 1015.06 1014.21 1012.77 1011.15 1011.65 1011.81 1010.83 1010.65 1010.17 1010.03 1009.25 1009.73 1009.86 1010.10 1008.63 1010.37 1010.43 1010.80 1010.18 1010.13 1010.54 1011.26 1011.67 1012.13 1012.87 1013.55 1014.18 1014.91 1016.09
1022.57 1022.03 1021.50 1020.70 1019.88 1019.19 1018.51 1017.71 1016.97 1015.92 1014.79 1013.90 1013.73 1012.97 1012.21 1011.75 1011.48 1010.93 1010.79 1010.40 1009.62 1009.74 1009.08 1009.55 1009.39 1009.97 1010.06 1010.80 1010.35 1009.99 1010.13 1010.75 1011.64 1012.20 1012.78 1013.28 1014.08 1014.71
1023.51 1022.96 1022.13 1021.24 1020.46 1019.86 1019.18 1018.55 1017.76 1016.72 1015.84 1014.91 1014.36 1014.10 1013.52 1012.84 1012.27 1011.82 1011.39 1010.75 1010.23 1010.13 1010.55 1009.70 1009.87 1008.71 1009.65 1010.44 1010.55 1010.07 1009.92 1010.20 1010.68 1011.18 1011.58 1012.31 1013.27 1013.76
1024.17 1023.73 1022.92 1021.84 1021.19 1020.66 1020.18 1019.66 1018.93 1017.94 1017.17 1016.32 1016.02 1015.40 1014.65 1013.88 1013.00 1012.06 1011.41 1010.42 1010.26 1010.52 1010.28 1009.97 1009.65 1009.42 1009.55 1010.17 1009.89 1010.10 1010.07 1010.17 1010.24 1010.60 1010.99 1011.52 1012.19 1012.95
1024.79 1024.35 1023.75 1022.98 1022.20 1021.69 1020.90 1020.30 1019.72 1019.32 1018.92 1018.10 1017.15 1016.48 1015.39 1014.37 1013.80 1012.96 1012.40 1011.51 1011.24 1011.30 1010.95 1010.54 1010.43 1010.76 1010.96 1010.62 1009.93 1009.90 1009.96 1010.16 1010.14 1010.28 1010.33 1010.62 1011.13 1011.51
1025.67 1024.99 1024.23 1023.67 1023.09 1022.54 1021.85 1021.39 1020.85 1020.40 1019.60 1018.99 1018.35 1017.69 1016.85 1015.64 1014.70 1013.98 1013.30 1012.68 1012.80 1012.82 1012.33 1011.84 1011.51 1011.09 1010.88 1010.72 1010.75 1010.03 1010.09 1009.90 1009.75 1010.52 1010.31 1010.50 1010.55 1010.44
1026.36 1026.08 1025.64 1025.14 1024.60 1024.08 1023.50 1022.66 1022.03 1021.46 1020.77 1019.96 1019.27 1018.62 1017.86 1016.74 1015.97 1015.07 1014.64 1014.36 1013.88 1013.55 1013.16 1012.33 1011.96 1011.44 1011.53 1011.44 1011.03 1010.81 1010.44 1010.10 1010.53 1010.92 1010.31 1010.75 1010.27 1009.92
1027.18 1027.19 1027.03 1026.54 1025.96 1025.33 1024.80 1024.13 1023.36 1022.84 1022.16 1021.18 1020.39 1019.48 1018.75 1017.88 1017.05 1016.30 1015.74 1015.18 1014.65 1014.19 1013.74 1013.38 1012.91 1012.37 1012.21 1011.80 1011.97 1011.63 1011.52 1011.22 1010.73 1011.41 1011.47 1010.98 1010.89 1010.79
1028.34 1028.17 1028.06 1027.71 1027.14 1026.54 1026.11 1025.47 1024.64 1023.95 1023.21 1022.51 1021.53 1020.74 1019.87 1019.09 1018.13 1017.29 1016.70 1016.15 1015.71 1014.95 1014.76 1014.43 1013.98 1013.57 1013.45 1013.23 1012.74 1012.10 1011.84 1011.35 1011.25 1011.32 1010.17 1010.26 1010.73 1011.09
1029.46 1029.04 1028.87 1028.54 1028.11 1027.62 1027.25 1026.67 1026.02 1025.33 1024.53 1023.65 1022.78 1022.05 1021.22 1020.36 1019.43 1018.52 1017.87 1017.21 1016.54 1015.74 1015.25 1014.78 1014.67 1014.07 1013.46 1013.25 1012.95 1012.59 1012.34 1012.08 1012.05 1011.48 1011.57 1011.16 1010.93 1011.31
1030.45 1029.98 1029.64 1029.23 1028.84 1028.30 1027.96 1027.48 1026.78 1026.13 1025.48 1024.79 1023.99 1023.10 1022.27 1021.38 1020.39 1019.59 1018.80 1018.07 1017.43 1016.65 1015.70 1015.18 1014.88 1014.41 1014.03 1014.00 1013.51 1013.02 1012.70 1012.23 1011.82 1011.33 1011.31 1011.42 1011.52 1011.58
1031.32 1030.84 1030.43 1030.03 1029.54 1028.96 1028.58 1028.17 1027.66 1027.12 1026.39 1025.70 1024.92 1024.15 1023.29 1022.17 1021.21 1020.41 1019.54 1018.81 1018.06 1017.33 1016.39 1015.32 1015.20 1014.85 1014.53 1014.25 1014.00 1013.38 1013.07 1012.71 1012.53 1011.95 1011.57 1011.36 1011.42 1011.39
Thickness
5417 5434 5450 5465 5486 5503 5516 5529 5545 5566 5597 5607 5613 5622 5629 5631 5636 5637 5641 5642 5646 5647 5649 5651 5651 5650 5649 5648 5648 5648 5647 5646 5644 5641 5640 5638 5636 5634
5408 5423 5438 5454 5471 5485 5503 5519 5532 5552 5569 5599 5609 5619 5626 5628 5630 5633 5638 5643 5644 5646 5647 5651 5652 5652 5650 5648 5648 5648 5648 5648 5647 5644 5642 5640 5637 5635
5399 5410 5424 5438 5458 5476 5491 5505 5522 5536 5553 5584 5599 5610 5617 5618 5627 5629 5635 5636 5641 5644 5645 5649 5651 5652 5650 5648 5647 5646 5647 5648 5649 5647 5645 5642 5639 5636
5389 5401 5414 5430 5447 5462 5476 5493 5511 5522 5533 5572 5590 5599 5607 5609 5620 5625 5632 5635 5639 5643 5646 5648 5650 5650 5649 5647 5645 5644 5645 5646 5647 5647 5646 5645 5641 5638
5381 5393 5404 5417 5433 5448 5466 5483 5500 5512 5529 5546 5581 5589 5597 5603 5611 5620 5629 5633 5635 5641 5644 5645 5647 5648 5648 5648 5646 5644 5645 5646 5646 5647 5647 5646 5644 5641
5372 5383 5393 5406 5419 5437 5455 5470 5486 5502 5520 5542 5579 5585 5592 5597 5603 5606 5620 5630 5634 5636 5638 5638 5641 5644 5645 5645 5645 5646 5646 5647 5648 5649 5649 5647 5645 5643
5364 5374 5384 5394 5408 5423 5441 5458 5473 5490 5511 5536 5561 5580 5584 5590 5596 5595 5611 5623 5630 5634 5634 5633 5634 5636 5639 5640 5642 5643 5647 5650 5651 5650 5648 5648 5646 5644
5353 5364 5374 5385 5399 5414 5430 5448 5463 5481 5502 5518 5541 5566 5579 5585 5591 5597 5604 5612 5619 5631 5631 5633 5634 5638 5641 5642 5647 5647 5650 5653 5653 5652 5650 5648 5647 5645
5344 5355 5365 5374 5386 5402 5419 5438 5455 5469 5481 5499 5519 5537 5552 5571 5581 5590 5598 5599 5610 5622 5628 5630 5629 5637 5642 5646 5647 5648 5650 5652 5652 5651 5648 5647 5647 5646
5333 5342 5352 5364 5376 5390 5406 5422 5441 5457 5471 5487 5503 5518 5531 5546 5558 5582 5590 5593 5604 5616 5618 5624 5626 5633 5640 5645 5647 5648 5649 5651 5652 5652 5650 5649 5648 5647
5322 5331 5340 5350 5363 5377 5392 5406 5422 5439 5457 5475 5490 5510 5519 5534 5548 5563 5580 5585 5590 5600 5607 5614 5615 5620 5626 5637 5642 5645 5649 5651 5651 5650 5649 5649 5649 5646
5314 5321 5330 5340 5351 5363 5376 5391 5407 5423 5442 5464 5488 5494 5502 5521 5533 5546 5556 5578 5581 5579 5589 5610 5597 5610 5612 5624 5635 5639 5641 5647 5649 5647 5646 5645 5644 5636
5305 5311 5319 5329 5341 5351 5362 5376 5388 5405 5424 5443 5454 5471 5488 5501 5514 5527 5537 5548 5569 5578 5586 5589 5594 5597 5606 5610 5619 5631 5637 5641 5639 5640 5640 5640 5637 5635
5291 5299 5307 5319 5329 5339 5351 5362 5375 5389 5404 5422 5436 5449 5464 5479 5494 5506 5519 5531 5545 5555 5556 5574 5582 5602 5603 5595 5613 5615 5624 5630 5631 5634 5636 5634 5630 5631
5284 5287 5297 5308 5317 5326 5336 5346 5357 5371 5384 5399 5411 5426 5441 5457 5474 5490 5502 5520 5529 5534 5546 5557 5567 5577 5588 5593 5605 5602 5609 5614 5621 5623 5627 5628 5627 5625
5278 5281 5286 5295 5304 5312 5323 5333 5343 5353 5362 5375 5390 5404 5422 5440 5454 5468 5481 5495 5506 5513 5524 5535 5544 5550 5555 5571 5587 5592 5595 5600 5604 5610 5615 5617 5618 5621
5270 5275 5280 5284 5292 5300 5309 5317 5327 5337 5348 5359 5371 5383 5398 5414 5429 5443 5457 5470 5476 5484 5498 5509 5519 5530 5539 5549 5558 5574 5580 5584 5592 5589 5596 5603 5607 5614
5261 5263 5267 5270 5274 5281 5289 5300 5310 5319 5330 5342 5354 5364 5376 5391 5403 5417 5427 5439 5451 5460 5472 5488 5498 5510 5516 5525 5536 5545 5555 5564 5567 5569 5581 5588 5604 5604
5253 5252 5253 5258 5262 5266 5272 5281 5291 5299 5309 5322 5334 5346 5357 5369 5381 5392 5402 5412 5425 5434 5445 5458 5471 5483 5494 5507 5509 5518 5527 5536 5549 5549 5554 5562 5572 5580
5242 5243 5242 5245 5250 5254 5256 5262 5272 5281 5291 5301 5313 5323 5335 5346 5359 5370 5380 5389 5397 5409 5417 5428 5440 5451 5462 5472 5482 5495 5503 5515 5523 5531 5547 5550 5552 5556
5231 5233 5234 5236 5238 5242 5244 5248 5253 5259 5268 5280 5291 5301 5311 5320 5332 5344 5354 5364 5375 5387 5396 5405 5413 5425 5438 5447 5459 5469 5480 5488 5496 5510 5514 5523 5532 5535
5220 5222 5224 5226 5228 5232 5234 5237 5242 5247 5252 5259 5268 5279 5288 5299 5311 5320 5328 5339 5350 5362 5375 5383 5391 5402 5412 5419 5431 5443 5453 5466 5474 5486 5494 5499 5505 5513
5211 5212 5213 5215 5218 5222 5224 5227 5230 5234 5239 5244 5250 5258 5267 5279 5290 5299 5309 5318 5328 5338 5351 5365 5372 5380 5389 5396 5405 5416 5426 5437 5445 5457 5467 5475 5481 5488